Theta_e
318 317 317 316 316 316 316 316 316 316 316 315 314 314 314 314 313 312 311 310 310 309 309 308 308 309 308 309 307 307 307 307 307 308 308 307 307 306 306 307 307 306 308 308 307 308 308 308 307 307 309 311 311 312 314 314 314 315 315 312 309 310 310 307 307 306 305 303 305 305 308 309 308 308 307 308 309 310 307 306 309 307 306 305 305
318 317 317 317 316 316 316 316 316 316 315 314 314 314 314 313 312 311 311 310 310 309 308 309 309 309 309 308 307 307 307 307 307 307 308 307 307 307 306 306 306 305 306 307 307 307 307 308 307 307 307 307 308 309 310 311 312 313 313 313 311 309 309 306 305 306 307 303 304 304 308 309 308 307 309 308 308 309 308 306 305 305 304 305 304
318 317 316 316 316 317 316 316 316 315 315 314 314 314 314 313 313 311 310 310 309 309 309 309 309 309 309 308 307 307 308 308 307 307 307 307 307 306 306 306 307 307 307 307 307 306 308 308 307 308 308 308 307 307 307 308 309 312 312 310 311 309 308 304 305 305 306 305 304 305 307 307 309 306 307 308 308 308 309 307 305 304 305 305 304
317 317 316 316 317 317 316 315 316 315 315 315 314 313 313 312 313 311 311 310 309 309 308 309 309 309 309 308 308 307 308 309 308 308 308 308 308 306 306 306 306 306 307 307 307 307 308 308 308 308 308 307 306 307 306 306 307 309 310 309 309 307 307 304 306 305 305 305 302 304 305 307 306 301 304 304 305 307 309 306 304 303 305 304 304
318 317 317 317 317 316 315 315 315 315 314 314 313 313 312 312 312 311 311 311 309 308 310 309 308 308 309 309 308 307 308 309 308 307 308 308 308 307 307 306 306 306 306 306 312 307 308 309 307 307 307 308 307 307 307 307 306 306 306 305 306 306 306 304 304 304 305 305 304 302 303 303 302 302 303 303 304 305 305 305 304 304 306 306 304
318 317 317 316 316 315 315 315 315 314 314 313 313 313 312 312 312 311 312 311 309 309 309 308 309 308 308 309 309 308 308 308 308 308 308 307 307 306 307 306 306 306 306 306 310 306 308 307 307 307 307 309 308 307 307 307 306 307 305 304 303 305 305 303 304 304 305 305 304 303 304 304 304 305 304 305 306 304 304 304 304 304 305 305 305
317 317 316 316 315 315 315 315 315 314 314 313 313 313 313 312 312 311 312 311 310 309 308 309 310 309 309 309 309 309 309 308 308 307 308 308 308 307 307 307 307 307 307 307 308 307 307 307 307 307 308 308 308 308 308 307 308 307 307 306 305 304 304 304 303 303 303 303 303 304 304 303 304 305 304 305 305 305 306 304 304 303 304 304 304
317 317 316 315 315 314 315 315 315 315 315 314 315 314 313 312 312 311 311 311 311 310 310 309 309 309 308 309 309 310 309 309 307 307 308 308 308 307 308 309 310 310 310 309 309 309 309 308 309 309 308 308 309 308 308 308 307 308 306 306 305 305 304 304 302 302 302 302 303 303 303 304 304 304 303 305 305 304 303 303 303 303 303 301 301
315 315 315 314 314 315 315 315 315 315 315 314 314 314 314 314 313 313 311 310 311 311 310 310 309 309 309 309 310 310 309 310 309 308 309 309 308 308 308 310 310 311 311 311 311 311 311 310 310 310 311 312 309 308 308 308 308 308 306 306 306 306 305 305 303 302 302 303 303 302 303 303 303 304 303 303 303 304 303 302 301 301 301 301 300
314 313 312 312 313 313 314 314 315 315 315 314 314 313 313 313 312 313 313 312 310 311 310 310 309 310 310 310 309 310 310 310 312 307 307 310 309 309 310 310 310 311 312 311 311 311 312 311 312 317 314 311 307 302 301 303 306 309 308 306 307 306 306 305 304 303 303 302 303 304 303 303 302 303 304 303 301 301 302 303 301 299 299 299 299
315 315 314 314 314 314 313 313 314 313 313 313 314 315 314 313 312 312 310 310 310 311 311 310 309 309 310 310 309 309 311 311 305 301 300 303 310 310 311 311 311 311 311 311 312 312 312 311 310 314 315 312 308 299 299 299 300 301 301 303 306 308 306 305 305 304 303 303 303 303 304 303 302 302 303 302 301 304 303 302 301 299 300 299 298
307 309 313 315 315 315 314 314 313 312 312 312 313 313 314 314 313 312 311 311 310 308 308 308 308 309 309 309 309 309 310 308 302 301 299 298 304 312 311 311 311 311 312 312 312 312 312 312 311 312 313 313 311 307 302 298 298 298 297 297 298 300 301 308 307 304 304 304 302 304 304 304 303 301 301 300 301 300 299 300 299 299 298 299 298
301 302 303 304 308 311 312 312 311 311 311 311 311 312 312 311 310 310 310 310 310 309 308 309 308 306 308 310 309 308 309 303 299 300 299 298 297 304 312 312 312 312 312 312 312 312 312 312 312 312 313 315 316 310 308 306 299 298 298 298 298 297 296 296 299 310 308 307 305 304 304 303 301 301 303 302 302 301 298 298 297 297 298 297 296
299 299 299 300 300 301 301 301 301 302 303 305 306 307 308 307 307 306 308 308 308 308 309 308 307 307 308 308 308 307 308 301 295 293 294 295 295 298 311 312 312 312 312 312 312 312 312 312 312 312 312 313 313 310 308 307 305 303 303 303 304 302 297 296 295 294 301 309 308 306 306 304 305 303 304 302 302 300 299 298 297 296 296 297 296
297 298 298 298 299 299 299 298 298 298 298 299 300 299 300 301 303 303 304 305 305 305 305 304 305 305 305 306 307 308 308 296 295 294 292 292 292 295 307 309 311 311 312 312 312 312 312 312 312 312 312 312 312 309 308 307 305 304 303 302 303 302 301 301 302 303 305 306 307 309 308 305 306 305 303 302 304 302 302 300 299 298 295 294 295
296 296 296 297 297 298 297 297 297 297 297 297 297 297 297 298 298 300 300 300 300 301 301 301 302 304 305 305 305 307 308 297 296 295 294 293 293 301 305 308 309 310 310 311 311 312 312 311 311 311 312 312 308 301 303 307 305 305 304 301 300 299 298 296 293 294 300 304 305 306 306 305 301 303 300 300 298 297 297 296 296 296 296 295 294
295 296 296 296 297 297 297 297 297 296 296 296 296 296 296 296 296 298 297 297 297 298 298 299 300 300 301 302 303 303 304 299 294 295 294 294 297 303 305 306 308 309 310 311 311 311 311 311 311 311 311 311 305 299 296 300 306 305 304 302 300 300 299 298 293 292 292 292 292 291 292 293 294 293 292 293 296 298 298 297 295 295 295 294 294
295 295 296 296 297 296 296 296 295 295 295 295 295 296 296 296 296 297 296 295 295 296 297 297 297 298 298 299 301 300 300 299 294 294 294 294 297 303 306 307 307 307 308 309 309 309 309 308 312 312 311 311 302 298 294 300 306 305 304 302 300 300 299 298 298 296 292 292 292 292 292 292 292 292 292 292 293 296 299 297 295 295 295 295 294
294 294 295 296 296 296 296 296 295 295 294 294 295 294 295 295 295 295 295 295 294 295 297 295 295 295 296 297 299 298 298 298 295 293 293 294 298 303 304 306 306 308 308 308 308 306 307 307 306 307 310 307 299 296 293 299 307 306 305 303 301 300 300 297 298 298 298 297 297 297 295 295 296 296 296 293 293 295 296 297 295 297 295 293 292
294 294 294 295 295 296 296 295 295 294 293 293 294 294 294 294 294 294 294 294 294 294 294 294 293 293 294 295 295 296 297 298 296 292 293 294 294 301 304 305 306 307 308 307 307 308 307 307 304 296 294 294 295 294 293 294 306 307 305 303 302 302 301 298 300 300 299 297 295 295 295 294 294 294 295 295 296 296 295 296 297 297 294 293 293
293 293 294 294 294 294 294 295 294 295 295 294 294 294 294 293 293 293 293 293 293 293 292 293 292 293 293 294 294 295 297 297 296 292 292 292 293 294 302 304 305 306 307 306 306 307 308 308 308 303 297 294 292 292 293 293 296 306 305 304 305 304 297 299 298 296 297 296 295 295 294 294 293 293 294 295 295 295 294 293 292 293 294 293 293
293 292 292 293 293 293 293 293 294 294 294 294 293 293 294 294 293 293 293 293 292 292 292 292 291 291 292 292 293 293 295 296 295 293 291 291 292 292 297 301 302 303 304 306 307 307 308 308 308 302 294 293 292 292 292 293 292 303 305 298 294 292 299 300 298 297 296 295 295 294 294 294 294 294 294 295 294 294 294 293 292 291 293 295 295
293 292 292 291 292 291 291 292 292 293 293 293 292 292 292 293 293 293 293 292 292 291 291 291 291 291 291 292 292 292 293 294 293 294 292 291 291 291 291 293 291 296 300 302 305 307 306 305 303 297 291 291 291 291 291 292 293 298 296 294 291 292 295 298 296 296 295 295 295 294 294 294 293 293 293 293 292 293 292 293 293 294 294 293 292
291 291 291 291 291 291 291 291 291 291 292 292 292 291 291 292 292 291 291 291 290 290 290 290 290 290 290 290 291 292 292 293 293 292 292 291 291 290 290 290 290 294 296 298 301 302 302 302 299 291 291 291 291 290 290 291 295 294 293 292 291 292 297 295 294 294 293 292 293 293 293 293 292 292 292 292 292 292 291 291 291 292 292 292 292
290 289 289 289 290 290 290 290 290 290 290 290 290 290 290 290 290 290 290 290 289 289 289 289 289 289 289 289 289 290 291 292 292 292 291 291 291 290 290 290 289 289 292 296 298 299 296 292 291 291 292 291 291 291 290 290 290 292 292 291 293 297 296 295 294 293 292 292 292 291 292 292 292 292 291 291 291 291 291 290 290 290 290 290 290
290 290 290 289 289 289 289 289 289 289 289 289 289 289 289 289 289 289 289 288 288 288 288 288 289 288 288 289 289 289 290 291 291 291 292 292 291 290 290 290 291 291 291 293 293 292 290 290 290 290 290 291 293 295 296 296 292 292 291 292 297 296 296 295 293 293 292 291 291 291 290 289 289 290 290 291 291 290 290 290 291 290 291 292 292
289 288 288 289 288 288 288 288 288 288 288 288 288 289 289 288 288 288 288 287 287 287 287 287 287 288 288 288 288 288 289 289 290 291 291 291 291 291 291 291 291 291 293 295 293 294 292 292 292 290 289 288 289 289 291 291 293 294 295 296 297 298 296 295 295 294 292 291 290 289 289 289 289 289 290 290 290 289 290 290 290 290 290 290 290
287 286 287 287 288 287 288 286 287 287 287 287 287 287 288 288 288 288 287 287 287 287 287 287 287 287 287 287 287 288 288 288 289 290 291 291 291 291 290 290 290 290 291 293 293 294 293 290 290 292 293 293 292 292 292 292 292 291 294 295 295 294 293 292 292 291 291 291 290 289 288 288 289 289 289 289 289 289 289 290 290 289 288 289 288
286 285 285 286 287 287 287 286 286 286 286 286 286 286 286 287 287 287 288 288 288 288 287 287 288 287 287 287 287 287 287 288 289 289 290 289 289 289 289 290 290 290 290 290 292 292 292 291 290 291 291 289 289 290 291 292 290 291 292 292 292 293 292 292 290 290 290 289 288 288 287 288 288 288 288 289 289 288 288 289 288 288 286 287 288
285 285 285 285 286 286 286 285 285 285 285 285 286 287 286 288 288 287 287 289 289 289 289 288 289 288 287 288 288 287 288 289 289 289 289 289 289 289 289 289 288 289 288 288 290 289 288 289 288 288 288 288 289 288 289 290 290 289 289 289 290 292 290 290 290 289 288 289 288 287 287 287 287 287 288 288 288 287 287 287 287 287 287 287 287
285 284 285 285 285 286 285 285 285 285 285 285 286 286 286 287 288 288 288 289 289 289 289 288 288 288 289 288 288 288 288 288 288 288 288 289 289 289 288 288 288 288 288 288 288 289 289 288 288 287 288 288 288 289 289 289 289 289 289 289 291 290 288 288 288 287 287 287 287 287 287 287 287 287 287 286 287 286 286 285 286 287 288 287 287
285 284 284 285 286 285 284 284 285 285 285 285 285 286 285 285 287 288 289 289 289 288 288 288 288 288 288 289 289 288 288 288 288 288 289 289 288 288 288 288 288 288 288 288 288 288 288 288 288 287 287 287 288 288 289 289 289 289 289 288 288 288 288 287 287 288 287 287 286 286 287 287 286 285 285 284 283 286 286 285 286 284 285 286 287
286 285 285 285 285 285 284 285 285 284 284 285 285 285 285 286 286 287 288 289 289 288 288 288 288 288 288 288 288 288 288 288 288 288 289 288 288 288 288 288 288 288 288 288 288 289 287 287 287 288 287 287 288 288 289 290 289 289 289 289 288 288 289 288 287 288 287 287 286 286 286 285 284 283 282 282 284 284 283 284 285 285 285 286 285
285 286 285 284 285 285 284 284 284 284 284 284 284 284 285 285 285 286 286 287 288 288 288 288 288 288 288 288 288 288 288 288 288 288 288 288 288 288 288 287 288 288 288 288 288 288 288 288 288 288 288 288 289 288 288 288 289 289 288 289 289 288 287 287 288 287 286 286 286 284 284 284 283 284 283 282 282 283 283 283 284 284 284 285 286
284 284 283 284 284 284 284 284 284 284 284 284 284 284 284 284 284 285 285 285 285 285 286 287 288 288 287 287 288 288 288 288 288 288 288 287 287 287 288 288 288 287 288 289 289 289 288 288 288 288 288 288 288 288 288 289 288 288 287 286 286 287 287 287 287 287 286 286 285 284 283 283 283 283 283 283 284 284 283 283 284 285 286 285 285
285 284 284 284 284 284 284 284 283 284 284 284 284 284 284 284 284 284 284 284 285 285 285 286 286 286 287 287 288 287 287 287 287 287 287 287 288 287 287 288 287 288 287 288 288 288 288 288 288 288 289 289 289 288 288 287 287 287 287 287 286 286 286 286 286 286 285 286 284 283 283 282 282 282 283 284 284 283 283 284 284 283 283 284 285
285 285 285 284 284 284 284 283 283 284 283 283 284 284 284 284 284 284 284 284 284 284 284 285 285 286 287 287 287 287 287 286 286 287 287 287 287 287 288 288 287 288 288 288 288 288 288 289 288 289 289 289 288 289 288 288 288 287 286 287 286 286 285 285 285 285 285 284 283 284 284 283 283 284 285 283 280 280 281 280 280 282 283 285 285
284 285 285 284 284 284 284 284 284 282 283 283 284 284 284 284 283 283 283 283 284 283 284 284 284 284 284 285 288 286 285 286 286 286 287 287 287 287 287 287 287 288 288 289 288 289 288 289 288 288 288 288 288 289 288 288 288 287 286 286 286 286 286 285 285 285 284 284 284 284 284 283 283 283 283 284 283 282 281 281 283 285 285 285 285
284 283 283 283 282 284 284 284 284 283 284 283 284 283 282 283 283 283 283 283 283 283 283 284 284 284 284 284 285 286 285 284 283 283 284 285 286 286 287 288 288 288 289 289 288 289 288 288 287 288 288 288 288 288 288 287 287 287 286 286 286 286 286 286 285 285 284 284 284 284 284 282 282 283 284 283 282 282 282 283 284 285 286 286 286
283 283 282 283 283 283 284 283 283 283 281 283 284 283 283 283 283 282 283 283 283 283 283 283 283 284 284 285 285 284 283 282 282 283 283 284 284 285 285 285 286 287 287 288 288 289 288 288 288 288 288 288 287 287 287 286 286 286 287 287 286 286 285 285 285 285 284 284 283 283 283 282 281 281 282 283 283 283 283 284 285 286 286 286 286
283 283 283 282 282 283 283 283 283 283 283 282 282 283 283 282 282 282 282 282 282 282 282 283 284 284 285 285 286 285 283 283 283 283 282 283 283 283 284 284 285 286 287 287 287 288 288 287 287 287 287 287 287 287 286 286 286 287 286 286 286 285 285 284 284 284 283 283 283 283 282 281 282 284 284 283 284 283 283 284 286 286 286 286 286
283 283 283 283 282 283 283 283 283 284 284 282 283 283 282 282 283 282 282 282 282 281 282 283 283 284 285 286 285 285 284 284 284 283 283 283 283 283 284 285 286 286 286 286 286 285 286 286 286 286 286 286 286 286 287 286 286 286 286 286 285 284 283 283 283 283 283 283 282 282 281 280 281 283 283 282 282 283 284 285 286 286 286 286 286
283 283 283 283 283 283 283 284 284 285 285 284 283 283 282 283 283 282 282 282 282 281 282 282 283 284 284 284 284 284 285 284 283 284 283 283 283 283 284 284 285 286 286 286 286 286 285 285 285 285 285 285 286 286 286 287 287 286 286 285 285 284 283 281 281 281 281 281 281 280 280 281 281 281 281 281 282 283 285 285 286 285 285 286 286
282 282 283 282 283 283 284 284 284 284 284 283 284 284 285 285 284 284 284 284 283 282 282 281 281 283 284 285 285 285 284 285 284 284 284 284 284 283 284 285 285 285 285 285 285 285 285 284 284 284 284 285 285 285 286 286 287 287 286 285 284 283 283 282 282 281 282 282 281 280 280 280 280 282 282 281 282 284 284 284 285 286 286 286 286
283 282 283 283 283 283 284 283 282 284 284 285 286 286 285 286 285 285 284 284 283 283 282 282 282 282 283 284 284 284 285 285 285 285 285 285 284 284 284 284 284 284 285 285 285 285 284 283 283 282 282 282 282 283 283 283 283 284 286 285 284 283 283 283 283 281 281 282 281 280 280 280 279 280 280 281 281 283 285 285 286 285 285 286 286
283 282 283 283 283 283 283 283 282 283 283 284 285 286 286 286 285 285 284 284 284 283 282 283 283 283 283 284 285 285 285 285 285 285 285 285 285 285 285 284 284 284 284 284 283 283 282 282 281 281 280 280 280 281 281 282 281 281 281 281 281 280 278 277 278 280 281 282 281 281 279 278 279 280 280 280 282 283 284 285 285 286 285 285 285
284 283 283 283 283 283 283 283 283 283 283 284 285 285 285 285 285 285 285 285 284 284 284 284 285 284 283 284 285 285 285 285 285 285 285 285 285 285 285 285 284 283 283 282 282 281 280 280 279 279 278 278 279 279 280 281 281 281 281 280 279 278 277 277 277 278 278 278 280 280 280 280 278 279 280 280 282 282 283 284 285 284 285 285 286
284 283 282 283 283 283 282 282 283 282 282 282 283 284 285 285 286 285 286 285 285 285 284 285 285 285 285 285 285 285 285 285 285 284 284 284 284 283 283 283 283 282 282 281 280 279 279 278 278 278 277 277 277 278 278 279 280 280 280 281 280 280 279 279 279 279 278 278 278 277 277 277 277 277 278 278 280 280 282 284 284 286 285 285 286
284 284 283 282 283 283 283 283 282 283 283 282 282 283 283 284 285 285 285 285 285 285 284 284 284 284 284 285 285 285 285 284 284 284 283 283 283 282 282 282 281 281 280 280 279 279 278 278 277 277 276 276 277 277 277 278 278 278 278 279 279 279 279 280 280 280 279 278 278 277 277 278 278 278 277 277 278 279 281 283 283 285 285 285 285
284 284 283 283 283 283 282 282 282 282 281 281 282 281 281 282 283 283 284 283 284 284 284 284 284 284 284 284 284 284 284 284 284 283 283 283 283 282 282 281 280 279 279 279 279 278 278 278 277 277 276 276 276 276 276 277 277 277 278 278 278 278 279 279 279 279 280 280 279 279 278 277 277 277 277 276 277 279 281 283 284 284 284 284 284
284 284 284 283 283 283 283 283 282 282 281 279 281 281 281 281 282 282 282 282 283 283 284 284 284 284 284 284 284 284 284 284 284 283 283 283 282 282 281 280 279 279 278 278 278 278 277 277 276 276 276 275 275 275 275 275 275 275 275 274 274 275 275 276 277 277 277 277 278 279 279 278 278 278 278 277 277 279 281 282 283 283 284 284 283
Wind_Speed
6 6 6 5 6 7 6 5 5 5 6 6 7 6 5 5 5 5 4 4 6 5 5 5 4 5 5 4 5 5 5 4 4 5 6 5 5 5 4 5 6 4 4 5 5 5 6 7 6 4 5 6 5 5 5 5 5 4 3 4 4 4 5 4 4 4 2 0 2 3 3 4 3 3 4 3 3 2 2 1 2 2 2 1 1
9 8 6 7 7 6 6 5 6 6 7 7 7 7 6 5 4 4 4 4 5 6 5 4 3 4 4 5 5 5 5 5 4 5 6 5 4 3 4 5 5 4 4 5 5 4 5 6 6 6 5 6 5 5 5 5 5 5 4 4 5 5 4 4 3 5 6 3 2 1 3 4 5 3 5 5 4 2 3 2 1 1 2 1 1
7 8 7 6 7 7 7 7 6 6 7 7 7 7 6 5 4 5 5 5 4 6 6 4 4 3 3 4 4 4 5 5 4 5 5 5 5 4 4 4 4 4 4 4 4 3 6 6 5 5 4 6 5 3 3 4 3 5 5 4 4 3 3 1 4 4 7 5 2 4 4 4 4 4 4 3 2 3 3 2 1 1 1 1 2
8 8 8 8 7 8 7 6 7 7 8 7 7 5 5 5 5 4 5 5 6 5 4 4 4 3 3 3 4 4 4 4 4 4 5 5 5 5 4 3 4 4 5 4 4 4 5 5 4 5 5 6 4 4 4 4 4 5 5 5 5 5 5 3 2 5 4 6 5 5 4 5 2 1 2 1 2 2 1 1 1 2 2 2 3
9 7 8 9 7 8 7 6 6 5 5 5 6 6 6 5 4 5 5 5 5 6 4 2 3 4 5 5 5 4 5 5 5 4 3 3 4 5 5 4 4 4 3 3 2 4 3 4 5 5 5 5 3 3 3 5 4 4 5 4 5 4 4 4 4 3 6 7 5 2 2 2 1 2 4 4 2 2 2 2 2 3 4 3 4
8 8 7 8 7 7 7 7 7 6 5 5 5 5 5 5 4 3 3 6 4 5 5 3 3 4 3 5 5 5 5 5 5 5 5 4 3 3 3 3 4 4 3 3 3 3 4 5 5 4 5 5 4 4 3 4 4 4 5 4 4 4 5 4 3 4 6 6 6 4 2 5 2 2 2 3 5 4 3 3 4 3 4 5 4
6 7 7 8 8 7 6 6 7 6 6 6 6 5 4 2 1 0 1 4 5 5 3 2 1 2 3 3 3 4 4 4 3 3 3 4 4 4 3 3 4 4 5 5 4 4 3 4 4 4 4 5 5 5 5 5 4 5 5 5 4 5 5 4 4 4 5 5 2 2 4 0 2 4 2 3 3 3 5 5 4 2 3 4 4
5 6 7 7 6 6 5 6 7 7 7 7 7 7 7 5 4 2 2 3 4 5 5 4 3 2 3 4 4 3 4 3 2 2 3 3 3 4 4 5 4 4 4 5 5 6 6 6 6 6 5 5 5 5 6 5 4 5 3 4 5 6 5 4 4 4 5 4 4 5 3 3 2 2 1 4 4 1 1 3 7 5 3 4 3
5 5 5 4 4 4 4 3 4 7 7 7 7 7 6 5 3 3 2 1 1 3 3 3 3 2 1 1 1 1 3 3 3 3 4 3 3 4 5 4 4 4 4 3 3 4 4 5 6 6 6 5 5 6 5 6 6 4 3 4 5 5 5 4 4 4 4 4 4 2 4 4 4 5 5 5 8 7 5 3 4 3 4 5 3
7 7 7 6 6 6 6 4 4 4 6 5 6 5 3 2 1 2 2 2 1 0 2 2 3 3 3 2 1 1 3 3 4 6 5 4 5 3 2 3 4 4 3 3 3 4 4 4 3 5 6 6 7 7 7 8 5 4 6 6 6 5 5 5 5 5 5 5 6 6 6 6 7 7 7 5 2 3 6 6 7 4 5 4 2
8 7 7 7 7 7 7 6 6 6 7 5 4 5 4 4 4 4 5 3 2 1 1 2 3 3 3 3 3 4 4 4 6 7 8 6 4 4 5 5 4 3 4 4 6 6 5 4 3 2 4 5 6 7 8 8 7 5 8 8 8 8 6 5 5 5 6 6 4 4 6 7 7 5 5 5 4 6 6 6 7 6 6 5 4
11 9 8 7 7 8 7 6 7 6 6 5 5 6 6 6 6 4 2 2 4 4 3 1 1 0 1 2 2 3 4 4 5 5 6 7 7 5 4 4 5 5 5 5 6 6 6 5 4 3 3 4 4 5 5 5 4 3 5 8 7 5 5 7 6 4 5 6 5 7 6 7 6 6 5 6 6 4 5 6 6 6 6 4 4
12 12 11 11 9 8 8 8 8 7 6 6 6 7 8 8 6 5 5 3 5 6 4 4 4 3 2 1 1 1 2 4 6 6 6 5 6 5 4 4 5 5 5 6 6 6 6 5 6 4 4 4 3 3 3 3 2 2 0 2 3 5 6 6 6 6 6 6 7 7 9 7 6 8 8 9 7 9 6 5 5 5 4 5 4
12 12 12 11 10 8 9 10 10 9 8 8 8 8 8 7 5 4 4 5 6 5 4 5 4 5 4 4 4 4 4 6 7 7 8 8 5 3 5 5 5 5 6 6 6 6 6 6 6 6 5 4 4 4 4 4 4 4 3 3 4 4 4 4 6 8 6 6 8 9 8 7 9 9 9 9 11 10 8 7 6 6 5 5 3
12 12 13 11 11 11 11 10 11 9 9 9 10 10 8 7 8 7 6 6 7 6 6 6 6 5 5 5 5 5 4 7 6 6 6 5 5 3 4 4 4 5 6 6 6 6 6 5 5 6 5 5 4 5 5 6 5 4 4 4 4 2 1 1 2 0 3 4 4 6 5 7 5 9 10 8 8 8 7 8 8 6 6 4 4
11 11 12 11 10 10 11 12 11 10 9 10 11 10 9 8 8 7 7 7 7 6 7 7 7 7 6 6 6 7 7 11 11 9 6 5 3 1 1 2 4 5 6 5 5 4 4 4 5 6 6 6 7 9 7 5 5 5 6 5 4 1 1 1 3 3 2 1 1 3 3 7 7 10 10 9 7 7 7 7 8 7 7 5 3
11 11 10 10 9 9 9 11 11 10 9 11 10 9 9 9 8 6 8 7 7 8 7 7 6 7 8 8 8 7 8 13 15 13 10 5 2 2 2 2 3 5 6 6 5 5 5 5 6 6 7 7 8 8 9 7 5 6 6 6 4 4 3 2 5 6 6 8 11 14 14 13 10 7 7 9 10 9 9 9 6 6 7 4 1
9 9 9 9 9 9 10 10 10 9 9 9 9 8 8 8 8 7 8 7 8 7 5 6 7 8 8 8 8 7 7 10 15 15 12 8 3 3 3 3 4 5 6 6 5 5 6 8 7 6 7 8 7 7 8 8 6 6 6 6 6 7 5 2 3 4 8 11 13 15 16 16 13 10 8 6 5 6 8 8 7 6 5 4 4
8 8 7 7 7 8 8 9 9 10 9 8 7 8 8 7 5 5 6 6 7 6 7 7 6 7 7 7 9 8 7 8 13 14 14 9 4 3 3 3 4 6 5 7 6 5 6 6 8 9 8 8 8 8 9 8 7 7 8 7 8 9 8 7 7 7 6 8 6 8 9 11 10 8 6 3 5 3 1 6 7 7 6 4 5
6 7 8 8 8 8 8 8 8 8 8 7 7 6 5 6 7 6 5 5 5 6 5 5 6 6 6 6 6 7 7 8 10 14 13 13 5 2 2 3 4 6 5 4 6 6 6 7 7 9 10 9 9 8 8 11 9 7 6 8 8 11 6 6 5 7 7 8 7 6 7 6 7 6 4 3 4 5 5 5 6 5 5 5 4
7 8 8 8 8 8 7 7 8 7 6 6 6 6 5 6 5 6 5 5 5 6 7 6 6 6 6 6 5 6 6 7 8 11 13 13 11 4 3 3 5 6 6 5 5 6 7 6 5 2 3 6 7 8 7 10 10 8 8 9 10 6 9 7 7 7 8 8 7 6 6 6 6 6 4 3 3 3 4 4 4 4 6 6 4
6 7 8 8 8 8 8 7 7 6 6 5 6 6 5 5 5 5 4 5 5 5 6 6 6 6 6 6 6 6 6 8 6 7 10 11 12 11 6 6 7 6 7 7 6 6 6 7 7 5 7 6 5 5 7 8 10 8 9 12 8 13 11 7 6 6 6 6 6 5 5 5 5 4 3 3 3 4 6 6 6 6 4 5 6
6 7 7 7 7 7 7 7 6 5 5 5 6 7 5 5 6 5 5 5 5 5 5 5 5 6 6 6 6 7 7 6 8 8 8 8 8 8 7 5 10 6 6 7 8 7 5 6 6 7 8 6 4 3 6 9 8 10 14 10 10 13 10 7 8 8 7 7 7 7 6 5 5 5 4 4 3 5 6 6 7 7 6 4 4
5 6 6 6 6 6 6 6 6 5 5 5 5 5 5 4 4 4 5 5 5 5 5 5 5 5 6 5 4 5 5 7 7 9 9 10 8 8 8 7 6 4 5 6 7 7 7 7 6 7 7 5 3 3 6 8 9 12 10 8 9 9 6 5 5 6 7 7 7 6 4 3 4 5 5 4 5 5 5 6 6 6 6 5 4
6 6 6 6 6 5 6 6 5 5 5 5 5 5 5 5 5 4 4 3 3 3 3 3 3 3 3 5 5 5 4 4 5 6 8 9 10 9 9 8 7 4 4 5 6 7 7 9 9 8 7 5 3 5 7 9 13 10 10 13 13 9 9 9 10 9 8 8 7 6 5 4 3 5 5 5 6 5 6 5 5 5 4 4 3
7 7 6 6 6 5 6 5 5 5 5 5 5 4 4 5 4 4 4 4 3 3 4 4 4 4 4 5 5 6 6 6 6 6 5 6 7 11 12 10 10 8 7 8 10 10 9 8 7 6 4 4 3 4 5 6 11 12 13 14 9 9 9 8 8 10 8 7 7 7 6 5 6 5 6 6 7 6 6 5 5 3 3 4 4
6 6 6 5 5 5 5 5 5 5 5 5 5 5 5 5 4 4 4 4 4 4 4 4 5 5 5 5 5 6 5 5 6 5 5 6 7 8 9 9 10 9 7 5 5 4 4 4 3 2 2 2 4 4 5 4 4 5 7 9 9 9 10 11 10 11 11 9 7 7 6 7 6 7 6 6 6 4 3 6 5 3 3 2 3
5 4 4 4 4 4 5 6 6 6 6 5 6 6 6 5 6 6 6 6 5 5 5 5 6 6 6 6 7 6 6 6 6 7 7 6 6 6 7 7 7 6 8 7 5 4 3 1 0 1 1 2 2 3 3 4 5 5 3 1 5 8 8 7 8 8 6 8 9 7 6 7 7 7 6 6 6 4 3 4 4 3 2 2 2
4 5 4 5 5 4 4 4 4 5 5 5 5 2 2 5 4 4 4 2 1 3 4 5 5 5 5 7 7 8 7 8 8 7 9 9 9 8 8 8 7 7 7 8 6 2 1 2 2 2 2 0 1 3 4 5 5 5 7 6 6 5 5 8 9 9 10 10 10 10 8 7 7 5 6 6 5 4 2 4 2 5 2 2 2
5 4 4 4 3 4 4 5 5 5 5 5 6 6 6 7 3 2 4 6 6 4 2 3 5 5 5 5 4 5 7 8 11 14 14 13 13 13 12 12 11 9 10 12 7 4 3 3 3 4 2 2 2 1 2 4 5 4 5 8 9 9 6 5 5 5 5 8 8 8 7 6 7 7 6 7 4 3 1 2 3 3 3 1 1
3 3 3 3 2 3 4 5 5 5 5 5 6 5 6 7 9 9 6 7 8 8 9 10 10 8 5 5 6 9 11 12 13 12 12 13 13 14 14 13 12 10 10 5 4 5 5 4 4 3 3 3 3 3 3 4 4 4 4 4 6 8 7 7 6 4 4 6 6 6 6 7 6 4 5 6 6 4 2 1 2 3 3 2 1
4 3 3 2 3 3 4 3 4 5 5 5 4 5 5 6 6 4 4 7 7 8 8 9 9 8 9 8 6 6 8 9 11 12 13 13 12 12 13 12 12 11 11 6 5 5 3 4 3 4 3 3 4 3 3 4 4 6 6 5 4 4 8 8 7 7 6 6 6 5 4 4 4 4 4 5 4 3 4 3 2 2 2 1 1
5 4 4 3 4 4 5 5 5 4 5 5 5 5 5 5 7 8 1 2 6 8 8 8 8 9 10 11 10 8 9 11 13 13 12 13 12 12 11 11 10 10 3 2 5 5 3 4 5 6 6 6 4 4 5 5 5 5 7 7 7 5 6 7 6 7 6 6 6 5 4 4 4 3 3 4 4 4 4 3 2 2 1 0 0
4 4 3 3 4 5 5 4 4 4 4 3 4 4 4 4 4 5 8 9 7 4 3 5 8 9 9 9 9 10 10 11 12 12 12 12 11 11 9 8 9 8 6 5 4 6 5 5 6 6 5 4 4 3 3 2 2 4 4 6 7 7 7 6 7 6 5 5 5 4 4 4 4 5 4 3 3 4 4 3 2 2 1 0 0
4 4 4 4 4 4 4 4 4 4 4 5 5 5 5 5 4 4 5 5 6 8 8 8 7 8 8 7 8 10 10 11 11 11 11 10 8 8 7 6 6 2 2 5 5 5 5 5 5 5 5 5 4 3 3 5 4 4 5 7 6 7 7 5 4 6 5 4 5 4 4 5 4 3 5 5 4 4 4 3 2 1 1 0 0
4 4 3 4 5 4 4 4 4 4 4 5 4 4 4 4 5 5 5 4 5 6 7 6 7 8 10 8 11 12 12 12 11 10 9 9 9 6 4 5 4 5 4 5 4 5 4 5 4 3 3 4 3 4 4 6 6 5 6 7 7 6 6 5 4 4 3 4 5 6 5 4 4 4 4 4 5 5 3 3 2 1 0 0 0
3 4 5 4 4 4 4 3 4 4 4 4 5 5 5 5 5 6 6 6 6 6 5 7 8 9 8 7 12 13 14 12 11 9 10 10 8 4 2 3 4 4 4 4 4 4 5 3 3 4 4 4 4 4 5 5 6 7 6 6 7 7 6 6 6 5 6 5 5 4 5 5 4 4 4 5 4 4 3 3 2 1 1 1 1
1 2 2 3 4 4 5 5 5 4 5 5 5 5 6 6 6 5 6 6 6 5 7 7 5 5 8 10 10 7 9 7 9 8 10 9 8 6 5 2 2 3 4 4 4 4 5 4 5 5 4 5 6 5 5 6 5 7 7 7 6 6 6 7 6 6 6 6 5 4 5 4 3 3 3 5 4 3 3 1 0 0 1 1 0
0 2 2 4 4 4 4 5 5 6 6 5 5 5 5 6 6 6 6 5 5 5 5 5 6 7 8 7 7 8 8 9 10 9 8 7 5 6 6 5 5 5 4 4 3 4 4 3 1 1 3 4 5 5 5 4 6 6 7 7 6 6 6 4 5 5 5 5 4 4 4 3 2 2 3 4 3 3 2 1 2 1 0 0 0
2 2 3 4 4 4 5 4 4 4 4 5 5 5 5 6 5 5 5 4 5 5 5 6 6 6 7 7 7 7 7 7 7 7 7 8 7 7 7 7 8 7 6 5 4 3 3 2 3 3 3 4 4 4 4 5 6 5 4 4 6 6 5 5 4 4 5 4 5 4 4 4 3 3 3 3 3 3 2 2 2 1 0 0 1
2 2 3 4 4 4 5 4 3 3 3 3 3 4 4 4 5 4 4 3 3 4 4 5 6 6 6 8 11 9 6 6 6 7 7 7 8 8 8 8 7 6 6 4 3 3 3 3 2 2 2 3 4 6 5 5 7 5 4 5 6 6 5 4 4 4 5 5 4 4 3 3 3 4 4 3 2 2 1 1 0 0 0 1 1
3 3 4 3 4 5 4 3 3 3 3 2 4 4 4 5 4 4 4 3 5 5 4 6 6 6 8 14 11 10 6 6 5 6 7 8 8 8 8 7 7 6 5 5 5 3 3 4 4 3 4 4 4 4 5 5 5 6 6 6 6 7 6 5 4 4 4 3 3 3 3 3 4 4 4 3 2 1 1 0 0 0 0 0 0
4 4 3 3 5 4 3 2 2 3 4 4 4 4 3 4 4 3 4 4 5 5 5 5 6 6 7 9 9 8 7 6 6 8 7 7 8 7 8 7 7 7 6 6 6 5 4 4 5 5 5 4 5 5 4 4 6 7 7 7 6 7 6 5 4 4 3 3 3 3 4 4 4 4 4 3 3 1 1 1 1 1 0 0 0
5 4 3 4 4 4 3 2 3 4 3 2 3 4 4 4 4 4 4 5 4 5 5 4 4 6 5 6 7 7 7 7 7 7 7 8 8 8 7 8 7 7 7 7 7 7 6 7 7 7 6 5 5 7 6 4 2 6 7 7 6 6 5 5 5 5 4 3 4 4 3 3 4 3 3 2 2 2 1 1 1 1 1 1 1
5 4 4 5 4 4 4 3 3 3 3 4 4 4 4 4 4 4 5 5 5 4 4 4 4 4 5 5 6 6 7 7 7 6 7 7 7 8 8 7 8 8 7 8 7 7 7 7 7 7 7 6 6 7 6 5 5 4 4 6 7 6 6 6 4 4 4 5 5 4 3 4 4 4 3 3 3 2 1 1 1 1 1 2 2
5 4 4 4 4 3 3 3 3 4 4 4 3 4 4 4 4 4 4 4 4 4 3 3 3 3 3 4 4 6 6 6 6 6 6 6 7 7 7 7 7 7 7 7 7 8 8 7 7 7 7 7 7 7 7 6 6 6 6 6 5 5 4 4 3 3 3 4 5 3 5 5 4 3 2 3 2 1 1 1 1 1 1 1 1
5 4 4 4 5 3 1 2 3 3 4 3 3 3 3 3 3 4 4 4 4 4 4 4 4 3 3 4 5 5 5 6 6 6 6 7 7 7 6 6 7 7 7 8 8 8 8 8 8 7 7 6 6 8 7 7 7 6 6 6 6 5 4 4 4 3 2 2 2 4 4 5 5 3 2 2 2 1 1 1 0 0 1 1 1
5 4 4 4 4 4 3 3 3 2 3 3 3 3 3 3 3 3 3 3 4 4 4 4 4 4 4 4 5 5 5 5 5 6 6 6 6 6 6 6 7 6 6 7 7 8 7 7 7 7 7 7 6 6 6 6 6 6 6 6 6 5 5 5 4 4 3 3 3 4 6 6 3 1 2 2 2 1 1 1 1 0 1 1 0
4 5 5 4 4 5 5 4 4 3 3 2 3 4 3 3 3 2 2 3 3 4 3 3 4 4 4 4 4 4 4 5 5 6 6 5 6 6 6 6 6 6 6 6 6 7 7 7 7 7 6 6 6 6 5 5 5 5 5 5 6 8 8 6 5 4 4 4 4 3 4 3 3 3 2 2 1 0 0 0 1 1 1 1 1
5 5 5 5 4 5 4 4 4 4 3 3 3 2 2 3 3 3 2 3 3 3 4 3 4 3 3 3 4 4 4 5 5 5 5 5 5 5 6 6 6 5 5 6 6 6 6 6 7 6 6 6 6 6 5 5 4 4 4 4 5 6 6 6 6 6 4 3 3 3 3 3 3 3 2 1 0 1 0 0 1 1 1 2 2
5 5 5 5 5 5 5 5 4 4 4 2 2 2 2 2 2 2 2 2 2 3 3 3 3 3 4 3 3 3 4 4 4 4 5 5 5 5 5 5 5 5 5 6 6 6 6 6 6 6 6 5 6 5 4 4 3 3 3 4 4 4 3 3 3 3 4 3 3 3 3 3 3 3 2 0 0 0 1 1 1 2 1 1 2
Wind_Direction
138 134 135 144 153 160 151 139 140 142 138 129 132 147 153 155 157 152 139 143 134 125 123 129 135 135 134 133 127 119 110 92 80 95 90 84 66 83 59 67 78 53 69 49 37 70 85 98 95 100 129 128 143 148 156 169 170 175 139 143 142 152 140 113 120 117 109 226 139 179 163 148 174 200 175 160 153 162 121 125 130 130 103 90 75
151 149 153 154 152 136 128 132 149 148 138 136 144 152 159 152 145 140 153 161 138 129 123 132 141 146 140 138 125 122 119 113 108 103 107 99 83 68 83 86 84 62 71 67 41 44 71 84 89 100 111 120 132 153 166 170 182 179 192 183 184 182 192 113 128 145 174 168 140 72 153 203 181 192 188 181 192 167 172 153 105 121 131 139 148
144 141 145 149 145 141 141 151 154 150 141 147 154 160 155 136 143 157 158 160 133 127 134 137 155 153 139 132 123 120 125 122 124 116 123 125 119 93 96 116 124 110 94 104 85 72 73 76 69 92 113 103 98 107 126 172 178 200 205 191 202 201 243 88 125 136 166 199 180 159 176 183 187 182 196 205 165 176 174 188 147 127 113 142 85
147 147 147 147 146 142 145 147 148 153 153 158 160 152 141 149 153 165 164 159 143 117 106 135 146 148 137 124 129 132 129 132 132 139 149 144 136 136 130 119 127 139 147 160 141 96 110 92 84 91 84 77 63 104 119 145 173 201 218 209 193 186 196 220 154 132 166 166 214 189 181 163 201 73 132 81 125 144 186 109 106 97 100 82 88
143 148 149 146 148 144 139 138 138 137 139 141 146 142 145 148 156 170 158 150 129 117 111 115 146 145 153 159 151 157 163 155 143 144 153 152 147 147 150 148 150 157 166 173 147 133 117 119 145 131 117 105 89 78 106 125 138 161 191 198 190 180 183 199 171 131 145 182 186 176 131 115 129 136 164 143 109 81 60 70 90 110 88 79 90
146 144 143 142 142 141 142 139 135 132 130 125 132 131 133 151 161 172 165 137 115 109 130 143 177 169 167 171 170 164 165 168 164 168 164 152 132 128 136 149 158 154 166 211 160 162 150 154 159 158 136 136 162 148 132 128 129 136 158 174 174 168 179 190 155 146 169 179 168 154 162 155 138 109 193 172 139 111 80 86 72 46 105 92 55
134 135 134 144 145 149 145 137 130 124 120 111 96 87 83 70 46 81 108 124 125 122 112 151 214 182 165 154 158 162 163 160 159 152 150 149 148 148 155 164 172 175 171 178 184 168 163 149 164 178 164 154 155 166 148 135 138 145 158 158 154 154 165 170 158 152 164 146 136 157 150 51 149 160 126 130 107 144 145 130 83 49 43 84 94
131 138 140 142 141 137 131 135 130 122 101 82 78 74 63 55 46 66 84 103 122 135 152 180 215 186 186 182 179 159 148 154 159 156 139 146 153 167 181 180 178 182 188 190 184 175 176 181 181 193 188 186 169 167 156 149 144 137 156 145 149 150 163 155 150 159 158 172 167 167 181 149 108 33 122 133 116 56 187 145 148 149 100 48 43
80 70 65 71 75 86 89 80 84 91 90 95 84 70 67 64 35 14 56 49 107 147 154 159 187 238 254 208 167 126 152 173 177 173 170 169 157 178 188 186 178 195 209 218 217 198 202 194 188 187 200 190 186 167 176 157 148 153 183 153 151 158 153 162 164 158 164 168 159 101 144 157 174 146 160 185 191 183 169 145 118 96 126 108 63
72 70 69 69 70 65 67 62 67 66 77 67 90 96 87 89 78 32 19 9 303 139 145 163 193 215 227 244 205 197 217 207 196 187 180 181 182 179 177 201 202 207 211 238 273 267 246 238 225 195 191 184 181 181 172 178 189 175 167 168 164 162 172 168 176 181 166 180 191 169 169 192 188 188 182 203 115 88 129 144 131 152 105 88 75
67 75 78 82 82 79 77 71 56 60 69 68 84 113 114 98 72 48 36 359 353 39 130 193 222 234 230 218 221 232 244 241 224 200 196 188 179 186 193 212 199 214 224 229 241 246 249 233 252 262 189 182 184 188 191 194 197 184 174 183 175 166 161 174 197 176 184 199 186 184 198 197 207 190 191 155 177 166 157 144 123 142 152 147 178
54 45 46 61 71 75 81 78 79 73 79 81 80 95 94 89 82 87 89 47 31 42 58 63 69 359 292 294 279 277 279 299 303 263 233 212 204 200 199 199 202 209 214 222 240 248 255 254 249 268 243 217 182 178 198 210 210 200 185 189 191 190 175 172 175 183 192 195 193 210 193 203 186 174 172 165 157 128 131 141 147 154 153 168 159
58 52 45 45 44 51 61 74 70 66 61 70 74 78 83 76 69 58 47 46 68 65 51 56 35 31 75 105 303 300 286 331 326 302 264 234 229 236 221 211 207 221 219 226 232 241 247 258 266 268 264 268 232 176 177 199 222 239 216 215 237 234 245 240 202 197 176 196 203 209 206 187 169 205 192 167 148 136 147 134 151 154 153 147 162
63 60 55 47 45 41 54 64 61 52 45 49 52 54 62 64 62 56 53 41 51 50 47 57 50 48 40 40 9 6 12 17 14 3 360 356 330 258 239 219 224 228 228 227 231 236 236 235 245 251 251 250 237 205 191 200 191 186 183 197 229 241 260 283 290 296 245 213 206 214 218 174 198 181 173 160 154 157 155 156 154 145 145 139 136
61 62 62 54 50 51 54 55 61 53 51 56 64 53 39 44 45 34 47 43 38 33 23 24 24 25 19 13 20 16 31 23 23 16 36 52 43 360 316 312 273 250 243 233 230 233 233 227 226 243 248 228 221 199 199 204 191 191 176 200 204 277 42 15 326 258 242 257 258 256 232 214 206 166 161 180 161 155 156 157 160 134 113 98 84
57 57 61 53 52 49 61 62 56 53 48 53 52 53 48 38 37 24 43 43 40 39 31 33 27 28 24 22 27 20 6 9 10 13 34 43 47 11 334 306 303 306 299 287 279 275 274 251 247 255 255 256 243 206 205 179 184 199 202 200 189 149 51 9 331 264 260 259 251 289 258 195 188 165 164 153 122 115 99 91 93 108 120 123 136
54 54 56 53 52 51 50 65 63 55 55 55 49 44 45 37 32 22 44 39 41 38 37 37 29 35 34 31 29 22 20 11 9 3 1 17 34 346 321 299 281 273 267 262 259 260 252 237 235 245 250 251 248 218 202 175 199 208 215 212 202 186 223 26 43 61 89 89 81 73 57 40 36 73 118 136 134 132 114 106 129 141 124 134 141
55 55 57 52 55 58 61 61 65 58 53 53 53 44 41 40 37 24 45 37 39 27 20 39 38 37 38 34 29 35 22 14 17 9 0 352 360 337 335 317 296 280 280 276 261 255 250 244 232 235 242 247 251 216 197 180 199 206 209 209 206 219 224 136 100 68 82 84 90 94 90 82 66 35 20 40 103 119 131 150 166 143 147 154 162
54 58 56 56 57 60 64 70 73 71 67 59 55 54 43 40 29 30 36 39 39 24 27 28 29 34 33 31 27 34 21 13 19 18 15 1 350 338 327 307 291 281 283 293 300 279 280 264 244 239 236 246 241 223 198 186 210 204 212 199 215 222 212 168 153 134 122 94 77 82 82 101 112 115 110 58 351 354 84 124 139 145 143 146 124
56 63 64 60 60 56 55 58 62 68 70 68 58 55 55 54 41 42 36 35 37 32 25 28 30 25 17 24 24 23 21 15 15 16 15 13 11 312 316 306 281 288 301 288 296 285 263 268 255 242 248 259 260 242 214 198 208 212 185 206 212 230 176 165 179 148 141 134 125 97 112 92 81 83 70 34 352 26 49 85 116 101 123 134 130
51 55 56 58 57 56 54 59 63 63 61 64 68 63 49 49 48 49 40 30 36 32 28 21 21 13 15 14 19 19 20 19 18 19 13 11 9 6 331 317 311 305 297 285 266 276 282 275 274 287 265 253 258 264 249 222 221 212 201 210 220 180 134 164 174 158 133 133 122 115 103 94 92 89 89 74 38 47 68 59 73 116 123 119 118
58 58 58 58 56 51 51 49 49 50 45 51 62 61 51 50 48 50 43 45 40 33 25 22 17 9 358 4 10 6 7 19 13 35 28 17 13 8 351 328 324 318 298 280 279 271 270 286 291 320 356 349 319 281 254 241 235 237 223 219 172 148 168 160 137 130 116 113 121 114 110 113 112 106 101 92 92 83 79 81 77 68 54 97 125
67 68 65 60 58 54 50 47 45 45 46 44 50 47 34 39 38 44 47 48 50 42 31 17 17 9 2 359 359 355 356 355 11 7 21 31 22 19 357 327 318 313 292 286 286 286 300 298 294 330 340 341 331 280 240 226 218 224 232 207 173 171 156 147 150 143 134 133 125 126 116 125 128 128 123 120 101 86 83 78 80 84 77 65 58
71 69 64 60 57 55 53 52 50 47 43 46 53 54 41 36 42 33 32 31 22 22 14 9 15 10 359 350 348 351 347 348 346 1 358 5 18 17 7 347 317 296 299 288 293 294 292 292 297 311 319 323 304 224 216 205 208 220 225 197 145 116 94 96 95 117 128 129 127 117 126 128 120 125 135 133 119 108 91 82 74 73 85 83 79
66 61 55 48 45 43 46 44 44 45 44 46 52 42 38 32 40 27 36 38 36 28 3 5 13 355 354 345 336 335 342 339 332 341 349 350 353 357 356 352 335 291 269 270 266 273 280 287 284 280 277 271 237 191 187 195 202 205 184 153 143 158 158 157 153 147 146 145 134 127 123 144 140 121 125 116 112 99 88 69 67 67 70 85 87
58 55 53 51 44 40 44 33 33 30 31 34 43 47 41 29 33 19 31 29 27 28 4 7 1 356 341 337 333 328 329 334 334 336 342 347 346 347 345 344 342 325 273 264 268 276 278 281 297 312 309 291 229 208 200 197 192 178 160 151 153 160 168 158 155 141 144 147 147 148 140 138 134 135 134 134 114 108 108 103 98 69 81 102 97
58 49 47 46 39 39 44 31 23 20 23 20 26 27 27 29 21 11 15 12 4 10 6 3 353 344 336 326 319 317 314 314 317 312 322 338 342 338 340 337 338 339 337 305 288 280 285 286 238 218 165 93 81 72 56 65 108 133 153 160 163 161 156 156 164 160 154 145 137 135 143 136 130 127 131 117 108 108 93 121 116 119 115 91 105
72 61 52 54 44 36 36 30 31 23 17 23 20 11 11 17 13 0 354 347 352 354 357 358 348 335 328 324 322 321 319 318 315 320 323 331 331 332 327 324 327 332 322 318 304 291 288 276 29 10 5 36 32 46 72 71 82 98 87 126 152 140 119 86 93 98 111 125 126 125 126 141 136 128 117 112 110 108 121 123 133 128 111 121 99
62 49 38 45 30 25 34 30 27 21 9 8 1 355 18 348 350 337 318 291 291 317 339 325 320 317 323 322 324 322 324 319 311 309 311 317 322 325 327 320 318 312 305 300 296 327 312 308 313 284 299 189 97 113 126 116 101 108 110 89 59 46 80 130 139 141 146 139 144 145 141 130 120 103 109 109 118 121 71 91 73 127 112 73 98
53 37 36 43 20 25 19 18 14 10 4 359 359 346 339 344 333 324 306 320 328 289 259 298 302 310 305 289 261 280 296 293 299 305 306 308 308 305 297 293 289 289 296 291 261 257 233 225 228 219 222 205 183 162 159 140 135 129 127 133 131 132 123 108 116 136 146 135 137 133 137 132 131 134 134 134 124 112 109 137 149 142 110 112 105
80 56 55 38 19 27 21 14 5 359 358 358 357 353 336 335 331 320 312 314 313 309 314 314 314 306 288 280 283 265 269 279 287 288 289 293 299 301 301 300 302 298 297 297 236 221 229 217 232 223 225 213 191 185 166 151 142 129 129 126 125 128 126 126 134 132 127 128 130 130 140 144 145 144 142 142 134 127 107 65 95 95 110 134 112
100 95 86 51 29 31 24 21 12 3 354 354 354 349 345 334 330 283 288 320 308 302 297 292 290 294 300 297 298 299 287 279 282 287 290 292 289 288 293 299 301 299 297 238 234 241 221 217 220 215 201 204 210 196 186 163 154 146 137 126 123 130 133 139 151 149 140 131 130 133 131 132 135 147 147 143 142 141 132 115 99 97 84 71 54
88 75 66 43 37 30 23 14 2 9 358 349 348 354 356 355 342 334 325 263 296 298 298 299 310 321 320 321 318 309 304 305 305 301 298 294 296 298 299 293 287 294 301 174 217 240 221 215 217 211 199 206 198 188 186 179 160 155 151 144 144 144 132 129 137 132 136 138 135 137 134 130 132 128 137 149 145 132 118 108 88 76 87 63 342
96 94 79 61 43 24 21 8 360 352 337 342 345 350 348 341 328 326 329 339 351 333 313 315 317 316 317 316 311 310 307 304 301 297 293 292 295 300 307 299 293 275 207 210 204 233 221 220 227 225 224 235 209 183 160 151 153 141 122 118 115 116 108 119 122 121 120 128 130 125 118 110 123 130 130 113 86 93 96 98 99 126 123 149 334
76 73 71 57 55 36 14 12 4 346 352 359 359 356 344 337 329 342 343 345 337 335 337 334 331 335 329 326 322 324 319 316 314 313 314 316 315 306 298 304 309 331 232 241 231 232 212 214 219 218 205 213 207 176 153 130 121 116 113 107 101 103 100 101 95 102 113 111 117 110 111 123 134 126 132 115 105 95 100 106 113 154 165 187 24
62 50 31 36 35 27 13 9 357 356 351 351 348 340 345 353 357 352 343 337 337 335 331 333 320 314 322 334 347 344 340 340 341 341 341 339 336 340 329 311 304 298 290 286 266 255 224 212 190 187 234 253 189 181 155 144 132 118 120 131 126 125 115 102 102 97 94 109 113 123 118 103 115 109 90 84 101 113 112 125 157 191 190 220 43
55 28 16 14 34 17 3 11 9 3 360 4 4 3 1 358 356 2 357 347 344 341 330 329 343 347 354 11 354 342 346 354 353 0 1 352 348 12 312 299 304 314 307 286 267 251 251 234 170 148 146 187 199 178 156 143 132 122 123 114 116 112 119 126 130 132 127 114 107 104 109 115 113 108 114 113 112 112 124 121 101 168 207 227 200
90 29 351 2 24 13 12 3 357 3 18 22 14 9 1 360 359 5 354 348 346 346 347 350 355 360 351 337 344 346 334 340 359 15 9 7 10 360 344 300 279 279 286 267 235 224 230 210 195 189 174 155 149 158 154 139 136 135 132 126 115 108 106 113 114 110 105 102 108 117 112 106 107 115 120 119 128 128 122 126 148 198 196 204 237
42 360 345 20 50 39 26 10 357 3 6 23 18 11 358 359 356 358 352 347 348 351 351 349 354 359 351 331 341 346 358 17 16 3 350 350 351 352 343 344 336 319 296 275 231 207 221 189 67 65 150 140 138 139 137 135 134 129 123 118 112 118 120 116 101 99 103 113 114 111 106 110 121 123 119 115 116 120 125 172 220 234 244 43 63
77 30 35 53 46 45 51 30 5 8 13 17 7 357 355 8 357 349 344 348 349 351 355 356 357 356 343 354 1 4 29 18 12 356 354 353 353 352 351 352 350 347 347 345 334 305 277 96 161 165 133 126 120 106 109 128 116 103 110 117 124 124 124 123 120 117 114 112 107 105 118 129 126 115 103 101 112 130 150 187 211 228 287 310 296
106 73 69 56 52 51 57 40 10 11 39 24 334 358 360 347 348 354 348 354 354 360 360 1 357 346 345 6 16 24 39 25 8 9 4 358 356 356 356 356 360 356 348 349 356 11 47 80 80 79 86 108 120 118 119 114 115 121 118 114 107 105 90 74 78 88 98 113 117 123 123 119 126 119 105 100 113 132 177 204 200 187 226 260 268
94 66 50 43 56 66 63 26 334 10 49 12 3 6 346 350 352 357 3 7 9 7 8 9 359 351 356 11 17 19 36 26 16 15 11 9 6 4 0 1 8 12 7 8 9 3 25 45 54 55 72 93 107 115 116 111 109 112 108 105 100 83 80 80 77 90 108 107 110 119 123 114 103 87 105 119 119 135 172 182 63 77 63 226 265
100 96 99 70 67 71 69 360 340 27 27 17 13 354 347 352 359 359 15 24 21 20 26 14 355 356 4 5 11 22 35 23 26 24 20 16 13 11 10 7 9 13 19 21 27 33 39 46 51 53 50 51 80 82 82 118 129 116 111 108 106 97 96 89 89 89 88 92 111 119 125 120 108 107 117 121 128 143 103 61 46 35 44 52 31
107 101 78 74 78 72 60 44 46 25 6 355 360 353 3 12 13 13 27 31 30 30 27 15 359 2 359 3 15 25 24 24 29 28 27 24 24 19 15 18 16 21 29 31 28 34 41 43 47 48 44 40 48 63 60 31 65 116 118 114 112 120 118 119 124 132 139 132 127 127 115 111 111 106 112 114 135 90 71 54 36 27 31 27 4
107 100 90 84 68 72 60 42 36 17 25 33 26 16 19 20 18 19 27 32 32 32 25 18 13 16 13 12 12 20 25 28 24 23 27 28 29 27 25 25 27 30 33 36 32 37 39 44 47 46 41 31 33 42 39 31 26 49 82 118 127 133 146 145 133 129 131 135 129 117 118 121 116 115 106 101 92 91 83 48 30 17 33 17 355
120 117 105 103 90 66 60 49 33 37 43 49 26 19 15 21 20 23 28 35 39 37 33 23 23 26 23 15 21 30 32 33 31 25 24 26 30 33 35 32 34 30 34 40 38 36 38 40 44 46 42 36 43 50 57 49 45 46 47 44 64 75 66 71 84 108 122 128 127 127 127 105 107 111 114 115 130 169 96 47 15 33 38 346 323
128 126 126 120 117 105 87 83 67 51 45 51 47 41 29 24 22 25 33 36 40 41 40 25 24 23 17 25 30 34 31 35 33 33 29 27 26 25 22 31 41 37 32 31 33 34 35 38 41 41 41 35 41 49 51 55 60 61 59 66 72 75 74 82 84 82 77 80 123 137 133 120 113 120 106 97 111 97 84 63 342 33 73 12 342
147 142 137 141 124 125 161 135 103 94 70 67 64 57 42 32 26 34 19 22 32 34 37 35 35 26 25 27 34 40 37 38 38 39 36 35 31 29 24 32 42 42 40 39 38 39 37 37 35 37 35 33 34 42 46 47 50 54 58 59 59 66 86 100 105 103 102 105 88 102 112 117 118 111 108 104 86 71 107 30 328 305 63 58 359
157 154 152 163 151 146 163 154 151 134 118 94 84 77 68 49 47 39 28 23 31 34 45 49 40 28 35 41 38 39 39 47 48 43 42 39 41 39 38 36 36 37 49 45 40 44 47 49 51 50 48 44 42 43 45 48 49 45 49 51 58 66 71 74 90 95 100 93 94 100 95 91 92 87 78 76 81 44 256 269 280 11 21 32 18
183 176 164 172 162 152 155 149 150 138 130 113 111 103 84 82 73 50 42 37 29 36 41 51 58 51 47 43 39 38 43 51 53 52 51 49 48 46 47 44 41 32 38 47 47 47 46 44 46 50 48 49 47 46 51 54 59 63 72 75 72 72 69 68 69 73 75 89 97 93 97 99 98 89 79 82 91 253 234 25 15 22 14 4 355
190 190 177 177 173 150 144 152 158 150 147 147 136 130 131 124 112 97 84 74 61 46 52 55 53 56 54 47 54 60 59 62 60 56 55 54 54 52 50 47 45 45 45 49 51 49 44 42 42 37 35 33 35 33 29 28 26 39 43 46 56 64 66 63 79 87 94 101 103 100 91 88 90 90 94 100 225 255 37 30 25 25 20 7 345